Regional Weather Roundup
Issued by NWS Grand Forks, ND

Home | Current Version | Previous Version | Graphics & Text | Print | Product List | Glossary On
Versions: 1 2 3 4 5 6 7 8 9 10 11 12 13 14 15 16 17 18 19 20 21 22 23 24 25 26 27 28 29 30 31 32 33 34 35 36 37 38 39 40 41 42 43 44 45 46 47 48 49 50
000
ASUS43 KFGF 242031
RWRFGF
PRAIRIE TO PINES  WEATHER ROUNDUP
NATIONAL WEATHER SERVICE EASTERN NORTH DAKOTA/GRAND FORKS ND
300 PM CDT WED MAY 24 2017

 **SATELLITE DATA USED TO AUGMENT SKY COVER AT AUTOMATED STATIONS**
 *****  WEATHER ACROSS EASTERN NORTH DAKOTA  *****

CITY           SKY/WX    TMP DP  RH WIND       PRES   REMARKS
GRAND FORKS    FAIR      68  41  37 SE18G28   29.66F
GRAND FRKS AFB FAIR      66  40  38 SE21G26   29.65F
DEVILS LAKE    FAIR      64  42  44 S22G29    29.62F
FARGO          CLOUDY    64  42  44 S17G25    29.69F
WAHPETON ARPT  CLOUDY    61  41  48 SE14G20   29.70F
$$

 ***** WEATHER ACROSS CENTRAL AND WESTERN NORTH DAKOTA  *****

CITY           SKY/WX    TMP DP  RH WIND       PRES   REMARKS
BISMARCK       FAIR      69  41  36 S22G33    29.55F
MINOT          FAIR      71  34  25 SE23G36   29.46F
JAMESTOWN      PTSUNNY   63  43  48 S20G30    29.64F
MINOT AFB      FAIR      70  36  28 S26G39    29.45F
GARRISON         N/A     68  37  32 S25G32    29.48F
WILLISTON      PTSUNNY   78  38  23 SE24G32   29.33F
DICKINSON      FAIR      70  33  25 S29G40    29.41F
HETTINGER      FAIR      71  36  27 S28G35    29.48F
$$

 *****  OTHER AIRPORT OBSERVATIONS IN OUR AREA  *****

CITY           SKY/WX    TMP DP  RH WIND       PRES   REMARKS
WALHALLA       NOT AVBL
GRAFTON AIRPOR FAIR      68  41  37 SE21G30   29.66F
VALLEY CITY AR MOCLDY    61  43  51 S17G23    29.67F
CANDO          NOT AVBL
CAVALIER APRT  FAIR      68  39  34 S23G31    29.63F
GWINNER        MOCLDY    63  43  48 MISG      29.67F
SHEYENNE NWR     N/A     62  43  50 S12       29.95S
ROLLA          FAIR      63  37  39 S25G35    29.57F
 ***** THE ABOVE OBSERVATIONS ARE NON NWS ARE NOT QUALITY
       CONTROLLED AND MAY MIS-REPORT RAIN FOR SNOW...
$$

  *****  WEATHER ACROSS NORTHERN MINNESOTA  *****

CITY           SKY/WX    TMP DP  RH WIND       PRES   REMARKS
FLAG ISLAND    FAIR      61  41  48 CALM      29.71F
WARROAD        FAIR      66  41  39 E13       29.70F
ROSEAU         FAIR      66  41  39 SE13G22   29.69F
HALLOCK        FAIR      70  36  28 SE20G26   29.65F
THF RVR FALLS  FAIR      66  40  38 SE20      29.71F
BAUDETTE       FAIR      68  37  32 SE14G21   29.72F
WASKISH        CLOUDY    66  39  37 E10       29.71F
CROOKSTON      FAIR      66  41  39 S17       29.68F
STEPHEN NDAWN    N/A     66  39  37 S16         N/A
GREENBUSH NDAW   N/A     68  39  34 SE16        N/A
$$
  *****  WEATHER ACROSS CENTRAL AND WEST MINNESOTA  *****

CITY           SKY/WX    TMP DP  RH WIND       PRES   REMARKS
FOSSTON        FAIR      64  43  45 SE14      29.71S
BEMIDJI        FAIR      63  40  43 E13G21    29.73F
PARK RAPIDS    CLOUDY    63  37  38 SE15G23   29.72F
ELBOW LAKE     CLOUDY    59  43  56 SE10      29.72F
WADENA         CLOUDY    59  41  51 SE12      29.72F
DETROIT LAKES  FAIR      63  41  45 SE17      29.71F
MOORHEAD       FAIR      64  41  42 SE15      29.70F
FERGUS FALLS   CLOUDY    61  41  48 SE12      29.69F
MORRIS MN      CLOUDY    61  45  55 E9        29.71F
STAPLES        CLOUDY    57  39  51 E10G16    29.73F
$$
  *****  WEATHER ELSEWHERE ACROSS MINNESOTA  *****

CITY           SKY/WX    TMP DP  RH WIND       PRES   REMARKS
DULUTH         PTSUNNY   59  44  57 E17G24    29.77S
INTRNTL FALLS  FAIR      66  34  30 E14G21    29.74F
ELY            CLOUDY    59  37  44 E3        29.76S
CLOQUET        CLOUDY    57  39  51 E13       29.76F
WHEATON        PTSUNNY   61  43  51 SE10      29.72F
BRAINERD       PTSUNNY   59  42  53 VRB5      29.75F
HIBBING        CLOUDY    57  39  51 SE9       29.76F
ALEXANDRIA     CLOUDY    58  43  57 E9        29.74F
SAINT CLOUD    CLOUDY    57  44  62 NE8       29.74F
MINNEAPOLIS    CLOUDY    60  42  51 NE8       29.73S
$$

  *****  WEATHER ACROSS SOUTH DAKOTA  *****

CITY           SKY/WX    TMP DP  RH WIND       PRES   REMARKS
SIOUX FALLS    CLOUDY    62  47  57 E3        29.71F
BROOKINGS      CLOUDY    58  44  60 SE7       29.72
WATERTOWN      CLOUDY    59  44  57 SE9       29.70F
HURON          PTSUNNY   62  45  53 SE12      29.68F
SISSETON         N/A     61  46  57 SE12      29.70F
ABERDEEN       FAIR      65  40  39 S15G21    29.65F
MITCHELL       PTSUNNY   63  45  51 S9        29.70F
PIERRE         FAIR      66  41  40 SE21G26   29.61F
MOBRIDGE       FAIR      67  41  38 S20       29.57F
RAPID CITY     FAIR      73  44  35 SE23G29   29.50F
$$

  *****  SOME WEATHER IN NEARBY STATES *****

CITY           SKY/WX    TMP DP  RH WIND       PRES   REMARKS
GLASGOW MT     PTSUNNY   78  25  14 W25G39    29.23F
GREAT FALLS MT FAIR      65  21  18 SW32G45   29.41F
CHEYENNE WY    FAIR      77  33  20 W22G31    29.71F
SCOTTSBLUFF NE FAIR      79  43  27 E5        29.57F
OMAHA NE       FAIR      67  45  45 N5G16     29.70F
DES MOINES IA  CLOUDY    62  48  60 N10       29.68S
DAVENPORT IA   CLOUDY    58  52  80 N13       29.62S
CHICAGO IL     CLOUDY    61  51  70 NE15G25   29.55S
EAU CLAIRE WI  CLOUDY    62  46  55 NE12      29.69F
LA CROSSE WI   CLOUDY    60  50  69 NE7       29.68S
$$

  *****  SOME NATIONAL WEATHER *****

CITY           SKY/WX    TMP DP  RH WIND       PRES   REMARKS
LA GUARDIA NY  PTSUNNY   66  47  50 NE13      29.76R
RALEIGH NC     CLOUDY    74  67  78 SE8       29.61F
ATLANTA GA     FAIR      77  61  57 W21G26    29.50R
NEW ORLEANS LA FAIR      77  53  43 W14       29.69F
OKLAHOMA CITY  FAIR      71  43  36 NW18      29.78F
ALBUQUERQUE NM FAIR      82  28  14 W6        29.92F
SALT LAKE CITY FAIR      87  33  14 NW9       29.70F
LOS ANGELES CA PTSUNNY   66  55  67 W9        29.87F
BOISE ID       FAIR      71  17  12 NW20G25   29.73F
SEATTLE WA     PTSUNNY   59  40  49 VRB3      30.01F
$$

*** WEATHER ACROSS MANITOBA...SASKATCHEWAN AND ONTARIO ***
                ***ONTARIO***

CITY           SKY/WX    TMP DP  RH WIND       PRES   REMARKS
GERALDTON      MOSUNNY   64  18  16 VRB3      29.80F
THUNDER BAY    MOSUNNY   63  32  31 SE13G18   29.79F
SIOUX LOOKOUT  MOSUNNY   66  30  26 SE9       29.75F
TORONTO        PTSUNNY   72  45  37 E15G24    29.63S
BIG TROUT LK   SUNNY     68  25  19 SE7       29.75F
PICKLE LAKE    MOSUNNY   66  25  20 S6G18     29.76F
DRYDEN         SUNNY     68  32  26 S13G18    29.74F
KENORA         MOSUNNY   66  36  32 S10G18    29.72F
$$
                *** MANITOBA***

CITY           SKY/WX    TMP DP  RH WIND       PRES   REMARKS
BRANDON        PTSUNNY   68  37  32 S25G37    29.52F
DAUPHIN        SUNNY     73  34  23 S26G37    29.48F
ISLAND LAKE    MOSUNNY   73  30  20 S7        29.62F
PILOT MOUND      N/A     66  36  32 S30G44      N/A
THE PAS        PTSUNNY   72  43  35 MISG      29.40F
THOMPSON       PTSUNNY   75  36  23 S16G29    29.47S
WINNIPEG       MOSUNNY   70  36  28 S21G30    29.64F
LYNN LAKE      CLOUDY    68  46  45 E10       29.39S
CHURCHILL      PTSUNNY   54  41  62 S14       29.42F
GILLAM         PTSUNNY   73  36  25 SW14G24   29.52S
$$
                ***SASKATCHEWAN***

CITY           SKY/WX    TMP DP  RH WIND       PRES   REMARKS
ESTEVAN        MOSUNNY   70  37  30 SE29G43   29.33F
KINDERSLEY     LGT RAIN  54  48  82 W18G26    29.13R
LLOYDMINSTER   TSTM      55  50  82 SW5       29.07R
PRINCE ALBERT  PTSUNNY   70  43  37 SE24G37   29.13F
REGINA         PTSUNNY   79  39  24 S30G43    29.16F
YORKTON        LGT RAIN  64  32  29 S23G43    29.34F
N. BATTLEFORD  PTSUNNY   64  45  48 SW22G31   29.04F
LA RONGE       LGT RAIN  57  48  72 VRB2      29.30
SASKATOON      PTSUNNY   68  37  32 SE15G24   29.06F
SWIFT CURRENT  NOT AVBL
$$
NOTE: THESE ARE AUTOMATED STATIONS WITH LIMITED QUALITY CONTROL
      "FAIR" INDICATES FEW OR NO CLOUDS BELOW 12,000 FEET WITH NO
      SIGNIFICANT WEATHER AND/OR OBSTRUCTIONS TO VISIBILITY.
      SKY/WX - SKY CONDITION AND SIGNIFICANT WEATHER.
      TMP - AIR TEMPERATURE.    DP   - DEWPOINT TEMPERATURE.
      RH  - RELATIVE HUMIDITY.  PRES - PRESSURE.
      HX  - HEAT INDEX.         WCI  - WIND CHILL INDEX.
$



USA.gov is the U.S. government's official web portal to all federal, state and local government web resources and services.